Location: Alfortville
(48.8058°N, 2.4204°E)
Time: 18:03:08
(UTC+00:00)

AO-73 - Visible Passes

Search period start: 28 March 2023 00:00
Search period end: 07 April 2023 00:00
Orbit: 573 x 649 km, 97.7° (Epoch: 27 March)

Date Brightness Start Highest point End Pass type
(mag) Time Alt. Az. Time Alt. Az. Time Alt. Az.
28 Mar ? 02:13:57 10° ENE 02:15:53 13° E 02:17:23 11° ESE visible
28 Mar ? 03:48:11 10° N 03:52:22 70° WNW 03:54:22 29° SSW visible
29 Mar ? 02:27:42 10° NE 02:30:35 18° E 02:32:11 15° ESE visible
29 Mar ? 04:02:48 10° N 04:06:51 49° WNW 04:09:11 22° SW visible
30 Mar ? 02:41:47 10° NE 02:45:13 24° E 02:46:59 18° SE visible
30 Mar ? 04:17:28 10° N 04:21:17 35° WNW 04:23:58 17° SW visible
31 Mar ? 02:56:01 10° NNE 02:59:50 34° E 03:01:46 22° SE visible
31 Mar ? 04:32:12 10° N 04:35:41 26° WNW 04:38:45 12° WSW visible
01 Apr ? 03:10:21 10° NNE 03:14:23 47° E 03:16:32 24° SSE visible
01 Apr ? 04:47:01 10° NNW 04:50:02 20° WNW 04:52:59 10° WSW visible
02 Apr ? 03:24:45 10° NNE 03:28:54 68° ESE 03:31:17 24° S visible
03 Apr ? 02:06:10 10° ENE 02:06:46 10° E 02:07:22 10° E visible
03 Apr ? 03:39:12 10° NNE 03:43:22 85° WNW 03:46:02 21° SSW visible
04 Apr ? 02:19:05 10° NE 02:21:25 15° E 02:23:42 10° ESE visible
04 Apr ? 03:53:42 10° N 03:57:47 60° WNW 04:00:46 17° SSW visible
05 Apr ? 02:32:55 10° NE 02:36:00 20° E 02:38:31 12° SE visible
05 Apr ? 04:08:16 10° N 04:12:11 42° WNW 04:15:29 13° SW visible
06 Apr ? 02:47:00 10° NE 02:50:32 27° E 02:53:13 15° SSE visible
06 Apr ? 04:22:52 10° N 04:26:30 31° WNW 04:30:06 10° SW visible
